Regional Weather Roundup
Issued by NWS

Home | Current Version | Previous Version | Graphics & Text | Print | Product List | Glossary On
Versions: 1 2 3 4 5 6 7 8 9 10 11 12 13 14 15 16 17 18 19 20 21 22 23 24 25 26 27 28 29 30 31 32 33 34 35 36 37 38 39 40 41 42 43 44 45 46 47 48 49 50
000
ASUS45 KCYS 201810
RWRWY

WYOMING REGIONAL WEATHER ROUNDUP
NATIONAL WEATHER SERVICE CHEYENNE WY
1200 PM MDT WED AUG 20 2014

NOTE:  "FAIR" INDICATES FEW OR NO CLOUDS BELOW 12,000 FEET
WITH NO SIGNIFICANT WEATHER AND/OR OBSTRUCTIONS TO VISIBILITY.

WYZ001-201900-
YELLOWSTONE NATIONAL PARK

CITY           SKY/WX    TMP DP  RH WIND       PRES   REMARKS
LK YELLOWSTONE   N/A     56  43  61 VRB5      30.15S
6HR MIN TEMP:  38; 6HR MAX TEMP:  58;

W YELLOWSTONE  NOT AVBL

$$
WYZ002>013-054>058-071-098>099-201900-
NORTHERN WYOMING

CITY           SKY/WX    TMP DP  RH WIND       PRES   REMARKS
JACKSON        PTSUNNY   57  50  77 SW3       30.09F
CODY           PTSUNNY   70  48  46 NE12      29.94S
GREYBULL       PTSUNNY   78  47  33 NW12      29.86R
6HR MIN TEMP:  64; 6HR MAX TEMP:  80;

WORLAND        PTSUNNY   77  47  34 NE6       29.87S
6HR MIN TEMP:  58; 6HR MAX TEMP:  77;

SHERIDAN       CLOUDY    74  46  36 NW15G23   29.86R
6HR MIN TEMP:  66; 6HR MAX TEMP:  76; 6HR PCP: TRACE;

BUFFALO        CLOUDY    70  44  39 NW17G25   29.91R
6HR MIN TEMP:  65; 6HR MAX TEMP:  75;

GILLETTE       SUNNY     81  46  29 NW16G22   29.83S
6HR MIN TEMP:  66; 6HR MAX TEMP:  81;

HULETT         FAIR      79  45  29 MISG      29.83
NEWCASTLE      FAIR      81  41  24 MISG      29.81

$$
WYZ014>020-022>026-101>103-201900-
CENTRAL WYOMING

CITY           SKY/WX    TMP DP  RH WIND       PRES   REMARKS
BIG PINEY      MOSUNNY   67  43  41 VRB5      30.11F
6HR MIN TEMP:  42; 6HR MAX TEMP:  67;

PINEDALE       PTCLDY    64  41  42 NW5       30.13S
DUBOIS         FAIR      64  39  39 N17       30.07F
LANDER         PTSUNNY   78  41  26 E6        29.96S
6HR MIN TEMP:  55; 6HR MAX TEMP:  78;

RIVERTON       PTSUNNY   77  36  22 NW21G26   29.95S
6HR MIN TEMP:  55; 6HR MAX TEMP:  78;

CASPER         SUNNY     79  42  26 W14G24    29.92S
6HR MIN TEMP:  62; 6HR MAX TEMP:  81;

DOUGLAS        MOSUNNY   81  46  29 NW20G30   29.89F
6HR MIN TEMP:  61; 6HR MAX TEMP:  81;


$$
WYZ021-027>030-104>119-201900-
SOUTHERN WYOMING

CITY           SKY/WX    TMP DP  RH WIND       PRES   REMARKS
EVANSTON       PTSUNNY   65  50  58 SW15G22   30.14S
6HR MIN TEMP:  52; 6HR MAX TEMP:  65; 6HR PCP:  0.01;

KEMMERER       MOCLDY    63  45  51 W13G18    30.13F
FORT BRIDGER   FAIR      66  49  54 W14       30.16S
ROCK SPRINGS   CLOUDY    64  48  56 W15G24    30.11S
6HR MIN TEMP:  51; 6HR MAX TEMP:  65;

DIXON          LGT RAIN  60  55  85 CALM      30.12F
RAWLINS        PTSUNNY   69  49  48 W16G26    30.08S
6HR MIN TEMP:  54; 6HR MAX TEMP:  69;

SARATOGA       CLOUDY    63  52  67 MISG      30.13R
LARAMIE        PTSUNNY   68  47  46 W16G24    30.09R
6HR MIN TEMP:  51; 6HR MAX TEMP:  69;

CHEYENNE       MOSUNNY   76  47  35 W20G36    30.01S
6HR MIN TEMP:  62; 6HR MAX TEMP:  79;

TORRINGTON     SUNNY     85  52  32 W14G25    29.84F
6HR MIN TEMP:  67; 6HR MAX TEMP:  85; 6HR PCP: TRACE;

PINE BLUFFS    FAIR      84  45  24 W23       29.93F

$$



USA.gov is the U.S. government's official web portal to all federal, state and local government web resources and services.